DW0148 Weather Reports


time (UTC)temp
C
wind
direction
speed
KPH
gust
KPH
rain 1hr
cm
rain 24hr
cm
rain mn
cm
humidity
%
barometer
mb
20260506135305 16 159 3.2 6.4 0.51 1.24 1.24 94 1010.5
20260506134728 16 158 3.2 6.4 0.51 1.22 1.22 94 1010.5
20260506134228 16 113 1.6 6.4 0.51 1.17 1.17 94 1010.5
20260506133725 16 123 1.6 6.4 0.58 1.14 1.14 94 1010.8
20260506133224 16 123 1.6 6.4 0.58 1.07 1.07 94 1011.2
20260506132723 16 202 3.2 6.4 0.64 1.02 1.02 94 1011.2
20260506132222 16 103 1.6 6.4 0.66 0.99 0.99 94 1010.8
20260506131721 16 103 3.2 6.4 0.71 0.97 0.97 94 1011.2
20260506131220 16 190 1.6 6.4 0.74 0.94 0.94 94 1011.5
20260506130647 16 201 3.2 6.4 0.71 0.89 0.89 94 1010.8
20260506130146 16 211 1.6 4.8 0.69 0.84 0.84 94 1010.8
20260506125645 16 224 1.6 4.8 0.66 0.76 0.76 94 1010.5
20260506125143 16 217 1.6 4.8 0.64 0.74 0.74 94 1010.8
20260506124642 16 231 1.6 4.8 0.64 0.71 0.71 94 1010.8
20260506124141 16 148 1.6 4.8 0.61 0.66 0.66 94 1010.2
20260506123607 16 161 0.0 3.2 0.48 0.53 0.53 94 1011.2
20260506123035 17 125 1.6 3.2 0.41 0.46 0.46 93 1011.2
20260506122533 17 73 1.6 4.8 0.33 0.36 0.36 93 1010.8
20260506122031 17 217 0.0 8.0 0.28 0.30 0.30 93 1010.8
20260506121530 17 217 0.0 8.0 0.20 0.23 0.23 92 1010.5
20260506121029 17 241 3.2 8.0 0.15 0.18 0.18 92 1010.2
20260506120528 17 215 1.6 8.0 0.13 0.15 0.15 91 1010.2
20260506120026 17 197 1.6 4.8 0.10 0.13 0.13 91 1010.2
20260506115454 17 153 1.6 6.4 0.10 0.10 0.10 91 1009.8
20260506114953 17 236 3.2 6.4 0.08 0.08 0.08 90 1009.8
20260506114451 17 187 1.6 8.0 0.05 0.05 0.05 90 1009.8
20260506113848 17 208 3.2 8.0 0.05 0.05 0.05 90 1009.5
20260506113347 17 226 3.2 8.0 0.05 0.05 0.05 89 1009.5
20260506112846 17 231 1.6 6.4 0.03 0.03 0.03 89 1009.5
20260506112344 17 212 3.2 6.4 0.03 0.03 0.03 89 1009.1
20260506111843 17 192 1.6 4.8 0.03 0.03 0.03 88 1009.1
20260506111342 17 212 3.2 6.4 0.03 0.03 0.03 87 1009.5
20260506110841 17 203 1.6 6.4 0.03 0.03 0.03 86 1009.1
20260506110339 17 215 1.6 6.4 0.03 0.03 0.03 85 1008.8
20260506105838 18 225 3.2 8.0 0.03 0.03 0.03 84 1008.8
20260506105338 18 214 3.2 11.3 0.00 0.00 0.00 82 1008.8
20260506104836 18 228 3.2 11.3 0.00 0.00 0.00 80 1008.5
20260506104334 18 220 3.2 12.9 0.00 0.00 0.00 78 1008.5
20260506103833 19 225 1.6 12.9 0.00 0.00 0.00 77 1008.5
20260506103330 19 225 3.2 11.3 0.00 0.00 0.00 76 1008.8
20260506102758 19 220 4.8 11.3 0.00 0.00 0.00 76 1008.8
20260506102257 19 229 4.8 20.9 0.00 0.00 0.00 76 1008.8
20260506101756 19 233 4.8 20.9 0.00 0.00 0.00 75 1008.5
20260506101255 19 221 3.2 22.5 0.00 0.00 0.00 74 1008.5
20260506100754 20 219 6.4 22.5 0.00 0.00 0.00 73 1008.5
20260506100251 20 230 6.4 14.5 0.00 0.00 0.00 73 1008.5
20260506095750 20 236 3.2 14.5 0.00 0.00 0.00 71 1008.1
20260506095249 20 227 3.2 16.1 0.00 0.00 0.00 71 1008.5
20260506094747 20 224 4.8 16.1 0.00 0.00 0.00 71 1008.5
20260506094215 20 219 3.2 12.9 0.00 0.00 0.00 71 1008.1
20260506093713 20 215 4.8 12.9 0.00 0.00 0.00 70 1008.1
20260506093212 20 227 3.2 11.3 0.00 0.00 0.00 70 1008.1
20260506092704 20 220 3.2 14.5 0.00 0.00 0.00 70 1008.1
20260506092203 20 239 3.2 14.5 0.00 0.00 0.00 69 1008.1
20260506091631 20 220 8.0 14.5 0.00 0.00 0.00 69 1008.1
20260506091130 20 238 9.7 16.1 0.00 0.00 0.00 69 1008.1
20260506090628 20 236 8.0 16.1 0.00 0.00 0.00 69 1008.1
20260506090126 20 207 3.2 17.7 0.00 0.00 0.00 68 1008.1
20260506085625 20 195 4.8 17.7 0.00 0.00 0.00 68 1008.1
20260506085124 20 222 4.8 17.7 0.00 0.00 0.00 67 1008.1
20260506084623 20 221 4.8 19.3 0.00 0.00 0.00 67 1008.1
20260506084122 20 237 9.7 19.3 0.00 0.00 0.00 67 1007.8
20260506083621 20 225 6.4 17.7 0.00 0.00 0.00 67 1007.8
20260506083120 20 198 8.0 19.3 0.00 0.00 0.00 66 1007.5
20260506082619 20 243 4.8 19.3 0.00 0.00 0.00 66 1007.5
20260506082116 20 243 8.0 19.3 0.00 0.00 0.00 65 1007.8
20260506081615 20 223 3.2 19.3 0.00 0.00 0.00 65 1007.8
20260506081114 20 220 6.4 19.3 0.00 0.00 0.00 64 1007.8
20260506080613 20 193 3.2 16.1 0.00 0.00 0.00 64 1007.5
20260506080112 20 239 8.0 16.1 0.00 0.00 0.00 63 1007.5
20260506072926 21 224 3.2 16.1 0.00 0.00 0.00 61 1007.5
20260506072425 21 239 4.8 14.5 0.00 0.00 0.00 61 1007.5
20260506071853 21 226 4.8 16.1 0.00 0.00 0.00 61 1007.5
20260506071352 20 220 4.8 16.1 0.00 0.00 0.00 61 1007.8
20260506070850 20 222 4.8 17.7 0.00 0.00 0.00 61 1007.8
20260506070349 20 216 4.8 19.3 0.00 0.00 0.00 61 1007.8
20260506062238 21 223 4.8 14.5 0.00 0.00 0.00 56 1008.5
20260506061737 21 219 4.8 14.5 0.00 0.00 0.00 56 1008.5
20260506061234 21 251 6.4 14.5 0.00 0.00 0.00 56 1008.5
20260506060734 21 195 6.4 14.5 0.00 0.00 0.00 56 1008.5
20260506060233 21 232 3.2 11.3 0.00 0.00 0.00 56 1008.5
20260506051116 21 235 4.8 9.7 0.00 0.00 0.00 56 1009.1
20260506050615 21 186 1.6 9.7 0.00 0.00 0.00 56 1009.1
20260506050114 21 229 4.8 9.7 0.00 0.00 0.00 56 1009.5
20260506045111 21 224 4.8 11.3 0.00 0.00 0.00 55 1009.1
20260506044610 21 217 3.2 11.3 0.00 0.00 0.00 56 1009.1
20260506044108 21 235 4.8 11.3 0.00 0.00 0.00 56 1009.1
20260506043535 21 219 1.6 11.3 0.00 0.00 0.00 56 1009.1
20260506043033 21 217 3.2 12.9 0.00 0.00 0.00 55 1009.1
20260506042532 21 235 4.8 12.9 0.00 0.00 0.00 55 1009.1
20260506042031 21 231 4.8 9.7 0.00 0.00 0.00 55 1009.1
20260506041529 21 234 3.2 11.3 0.00 0.00 0.00 55 1009.1
20260506041028 21 239 3.2 11.3 0.00 0.00 0.00 55 1009.1
20260506040527 21 221 3.2 11.3 0.00 0.00 0.00 55 1008.8
20260506040026 21 232 4.8 11.3 0.00 0.00 0.00 54 1008.8
20260506035525 21 225 4.8 12.9 0.00 0.00 0.00 54 1008.8
20260506034921 21 208 4.8 14.5 0.00 0.00 0.00 54 1009.1
20260506034420 21 231 4.8 14.5 0.00 0.00 0.00 54 1009.5
20260506033918 21 217 4.8 12.9 0.00 0.00 0.00 53 1009.5
20260506033344 21 208 4.8 14.5 0.00 0.00 0.00 53 1009.1
20260506032740 21 240 4.8 14.5 0.00 0.00 0.00 52 1009.1
20260506032237 21 239 3.2 14.5 0.00 0.00 0.00 52 1009.1
20260506031736 21 219 4.8 16.1 0.00 0.00 0.00 52 1009.1
20260506031235 21 220 4.8 16.1 0.00 0.00 0.00 52 1009.5
20260506030734 20 217 3.2 8.0 0.00 0.00 0.00 53 1009.5
20260506030232 20 211 3.2 6.4 0.00 0.00 0.00 52 1009.8
20260506025731 21 199 1.6 6.4 0.00 0.00 0.00 54 1009.8
20260506025158 21 225 3.2 6.4 0.00 0.00 0.00 51 1009.8
20260506024555 21 231 3.2 4.8 0.00 0.00 0.00 51 1009.8
20260506024054 21 119 1.6 4.8 0.00 0.00 0.00 51 1009.5
20260506023552 21 190 1.6 6.4 0.00 0.00 0.00 51 1009.5
20260506023019 21 168 0.0 8.0 0.00 0.00 0.00 51 1009.5
20260506022518 21 235 3.2 8.0 0.00 0.00 0.00 50 1009.5
20260506022016 21 201 1.6 8.0 0.00 0.00 0.00 50 1009.5
20260506021516 21 215 1.6 8.0 0.00 0.00 0.00 49 1009.5
20260506021014 21 212 3.2 9.7 0.00 0.00 0.00 49 1009.1
20260506020442 21 232 3.2 9.7 0.00 0.00 0.00 49 1009.1
20260506015941 21 210 3.2 9.7 0.00 0.00 0.00 49 1009.1
20260506015441 21 233 3.2 9.7 0.00 0.00 0.00 50 1009.1
20260506014939 21 209 3.2 9.7 0.00 0.00 0.00 50 1009.1
20260506014438 21 202 3.2 9.7 0.00 0.00 0.00 50 1009.1
20260506013937 21 208 3.2 9.7 0.00 0.00 0.00 51 1009.1
20260506013436 20 230 3.2 11.3 0.00 0.00 0.00 51 1009.1
20260506012935 20 244 3.2 11.3 0.00 0.00 0.00 51 1008.8
20260506012434 20 148 3.2 11.3 0.00 0.00 0.00 52 1008.8
20260506011933 20 177 1.6 9.7 0.00 0.00 0.00 53 1008.8
20260506011431 20 228 3.2 9.7 0.00 0.00 0.00 52 1008.8
20260506010930 20 189 1.6 9.7 0.00 0.00 0.00 52 1008.8
20260506010429 20 208 1.6 6.4 0.00 0.00 0.00 53 1008.5
20260506005824 19 223 3.2 4.8 0.00 0.00 0.00 55 1008.5
20260506005322 19 184 3.2 3.2 0.00 0.00 0.00 54 1008.8
20260506004821 20 153 1.6 6.4 0.00 0.00 0.00 55 1008.8
20260506004248 20 149 1.6 6.4 0.00 0.00 0.00 55 1008.8
20260506003746 20 159 0.0 6.4 0.00 0.00 0.00 52 1008.8
20260506003245 20 206 3.2 6.4 0.00 0.00 0.00 51 1008.8
20260506002744 21 187 0.0 3.2 0.00 0.00 0.00 50 1008.8
20260506002243 21 168 1.6 6.4 0.00 0.00 0.00 50 1008.8
20260506001742 21 230 3.2 8.0 0.00 0.00 0.00 48 1008.8
20260506001138 21 246 1.6 8.0 0.00 0.00 0.00 48 1008.8
20260506000637 22 222 1.6 8.0 0.00 0.00 0.00 48 1008.8
20260506000136 22 223 1.6 9.7 0.00 0.00 0.00 48 1009.1
20260505235603 22 221 3.2 11.3 0.00 0.00 0.00 46 1009.1
20260505235102 22 241 3.2 14.5 0.00 0.00 0.00 46 1009.1
20260505234601 22 221 3.2 14.5 0.00 0.00 0.00 46 1009.1
20260505234028 22 193 3.2 14.5 0.00 0.00 0.00 46 1009.5
20260505233527 22 229 4.8 14.5 0.00 0.00 0.00 45 1009.5
20260505233026 22 201 4.8 12.9 0.00 0.00 0.00 45 1009.1
20260505232525 22 224 4.8 17.7 0.00 0.00 0.00 45 1009.1
20260505232024 22 202 4.8 17.7 0.00 0.00 0.00 47 1009.1
20260505231521 23 231 6.4 20.9 0.00 0.00 0.00 44 1009.1
20260505230949 23 244 8.0 20.9 0.00 0.00 0.00 43 1008.8
20260505230448 23 135 6.4 20.9 0.00 0.00 0.00 43 1008.8
20260505225947 23 217 4.8 20.9 0.00 0.00 0.00 43 1008.8
20260505225445 23 233 3.2 22.5 0.00 0.00 0.00 43 1008.8
20260505224944 23 215 4.8 22.5 0.00 0.00 0.00 43 1008.8
20260505224443 23 226 9.7 22.5 0.00 0.00 0.00 41 1008.8
20260505223942 23 240 4.8 14.5 0.00 0.00 0.00 43 1008.8
20260505223441 23 213 6.4 20.9 0.00 0.00 0.00 41 1008.8
20260505222940 24 215 8.0 20.9 0.00 0.00 0.00 41 1008.8
20260505222439 24 227 3.2 20.9 0.00 0.00 0.00 42 1008.8
20260505221938 24 214 8.0 20.9 0.00 0.00 0.00 43 1008.8
20260505221437 24 110 4.8 17.7 0.00 0.00 0.00 45 1008.5
20260505220936 24 197 3.2 17.7 0.00 0.00 0.00 45 1008.8
20260505220435 24 233 4.8 19.3 0.00 0.00 0.00 45 1008.8
20260505215934 25 234 4.8 19.3 0.00 0.00 0.00 45 1008.8
20260505215433 25 234 8.0 16.1 0.00 0.00 0.00 45 1008.8
20260505214932 24 236 3.2 16.1 0.00 0.00 0.00 47 1008.8
20260505214431 24 221 4.8 11.3 0.00 0.00 0.00 49 1008.8
20260505213930 24 193 3.2 11.3 0.00 0.00 0.00 47 1008.8
20260505213429 24 239 3.2 19.3 0.00 0.00 0.00 49 1008.8
20260505212856 24 242 3.2 19.3 0.00 0.00 0.00 48 1008.8
20260505212354 25 233 6.4 19.3 0.00 0.00 0.00 46 1008.8
20260505211853 25 225 8.0 19.3 0.00 0.00 0.00 45 1009.1
20260505211353 25 214 4.8 16.1 0.00 0.00 0.00 46 1008.8
20260505210819 25 240 9.7 17.7 0.00 0.00 0.00 45 1008.8
20260505210318 25 279 6.4 22.5 0.00 0.00 0.00 46 1008.8
20260505205816 25 229 6.4 22.5 0.00 0.00 0.00 46 1008.8
20260505205315 24 252 4.8 22.5 0.00 0.00 0.00 44 1009.1
20260505204814 25 224 11.3 22.5 0.00 0.00 0.00 45 1009.1
20260505204313 25 222 3.2 19.3 0.00 0.00 0.00 47 1009.1
20260505203811 25 196 4.8 14.5 0.00 0.00 0.00 47 1009.1
20260505203310 25 225 6.4 14.5 0.00 0.00 0.00 46 1009.5
20260505202808 25 231 6.4 19.3 0.00 0.00 0.00 47 1009.5
20260505202307 25 235 8.0 20.9 0.00 0.00 0.00 46 1009.8
20260505201703 25 198 4.8 20.9 0.00 0.00 0.00 47 1009.8
20260505201202 25 232 8.0 19.3 0.00 0.00 0.00 45 1009.8
20260505200700 25 245 8.0 19.3 0.00 0.00 0.00 46 1010.2
20260505200159 25 241 8.0 19.3 0.00 0.00 0.00 44 1010.2
20260505195657 25 227 6.4 14.5 0.00 0.00 0.00 45 1010.2
20260505195157 25 240 3.2 14.5 0.00 0.00 0.00 46 1010.2
20260505194656 25 240 3.2 14.5 0.00 0.00 0.00 44 1010.2
20260505194154 25 222 6.4 16.1 0.00 0.00 0.00 47 1010.2
20260505193653 24 167 3.2 16.1 0.00 0.00 0.00 47 1010.2
20260505193151 24 235 4.8 17.7 0.00 0.00 0.00 48 1010.5
20260505192618 24 205 4.8 17.7 0.00 0.00 0.00 46 1010.2
20260505192116 23 223 4.8 12.9 0.00 0.00 0.00 50 1010.2
20260505191614 23 190 3.2 12.9 0.00 0.00 0.00 50 1010.2
20260505191112 23 173 4.8 17.7 0.00 0.00 0.00 52 1010.5
20260505190609 23 238 3.2 17.7 0.00 0.00 0.00 54 1010.8
20260505190108 23 243 6.4 19.3 0.00 0.00 0.00 51 1010.8
20260505185608 23 244 8.0 19.3 0.00 0.00 0.00 49 1010.8
20260505185106 23 240 8.0 16.1 0.00 0.00 0.00 52 1010.8
20260505184605 23 134 1.6 12.9 0.00 0.00 0.00 51 1010.8
20260505184104 23 228 4.8 11.3 0.00 0.00 0.00 52 1011.2
20260505183603 23 175 1.6 12.9 0.00 0.00 0.00 52 1011.2
20260505183102 23 198 3.2 12.9 0.00 0.00 0.00 53 1011.5
20260505182601 23 153 3.2 12.9 0.00 0.00 0.00 53 1011.5
20260505182059 23 223 6.4 12.9 0.00 0.00 0.00 53 1011.5
20260505181558 23 213 4.8 12.9 0.00 0.00 0.00 52 1011.9
20260505181057 23 239 4.8 16.1 0.00 0.00 0.00 52 1011.9
20260505180555 23 242 4.8 16.1 0.00 0.00 0.00 53 1011.9
20260505180052 23 142 3.2 17.7 0.00 0.00 0.00 57 1011.9
20260505175551 23 221 3.2 17.7 0.00 0.00 0.00 53 1011.9
20260505175050 23 261 4.8 16.1 0.00 0.00 0.00 54 1012.2
20260505174549 22 230 6.4 16.1 0.00 0.00 0.00 55 1012.2
20260505174017 22 225 8.0 16.1 0.00 0.00 0.00 53 1012.2
20260505173516 22 211 3.2 16.1 0.00 0.00 0.00 56 1012.5
20260505173015 22 241 6.4 14.5 0.00 0.00 0.00 55 1012.5
20260505172512 22 104 6.4 14.5 0.00 0.00 0.00 57 1012.5
20260505172010 22 212 3.2 16.1 0.00 0.00 0.00 56 1012.5
20260505171436 22 241 9.7 16.1 0.00 0.00 0.00 53 1012.5
20260505170935 23 233 8.0 14.5 0.00 0.00 0.00 55 1012.9
20260505170434 23 195 4.8 16.1 0.00 0.00 0.00 56 1013.2
20260505165933 23 238 8.0 16.1 0.00 0.00 0.00 52 1013.2
20260505165432 22 169 1.6 12.9 0.00 0.00 0.00 60 1013.2
20260505164930 22 198 1.6 12.9 0.00 0.00 0.00 58 1013.2
20260505164429 22 188 3.2 14.5 0.00 0.00 0.00 59 1013.2
20260505163856 22 99 4.8 14.5 0.00 0.00 0.00 59 1013.2
20260505163355 22 248 4.8 11.3 0.00 0.00 0.00 58 1013.2
20260505162854 22 98 4.8 11.3 0.00 0.00 0.00 57 1013.2
20260505162353 22 96 3.2 11.3 0.00 0.00 0.00 58 1013.2
20260505161852 22 71 4.8 11.3 0.00 0.00 0.00 56 1013.2
20260505161350 22 196 0.0 4.8 0.00 0.00 0.00 60 1013.2
20260505160849 22 203 1.6 4.8 0.00 0.00 0.00 62 1013.2
20260505160346 21 283 1.6 4.8 0.00 0.00 0.00 61 1013.2
20260505153308 20 321 1.6 4.8 0.00 0.00 0.00 62 1013.5
20260505152807 20 296 1.6 4.8 0.00 0.00 0.00 64 1013.2
20260505152202 20 309 1.6 4.8 0.00 0.00 0.00 63 1013.2
20260505151701 20 311 3.2 4.8 0.00 0.00 0.00 63 1013.2
20260505151159 20 285 1.6 3.2 0.00 0.00 0.00 63 1013.2
20260505150658 20 276 1.6 3.2 0.00 0.00 0.00 64 1013.2
20260505150157 20 209 1.6 3.2 0.00 0.00 0.00 64 1013.2
20260505140612 17 234 3.2 8.0 0.00 0.00 0.00 65 1013.2
20260505140111 17 113 3.2 6.4 0.00 0.00 0.00 65 1013.2